{"data":{"norad_id":69597,"intl_designator":"2026-140F","name":"KUIPER-00496","alt_names":[],"object_type":"PAYLOAD","status":"ACTIVE","operator":null,"country":"US","launch_date":"2026-06-17","launch_site_code":"FRGUI","launch_vehicle":null,"mission":null,"orbit_class":"UNKNOWN","rcs_meters":null,"size_class":null,"mass_kg":null,"dimensions":null,"purposes":[],"wikipedia_slug":null,"has_3d_model":false,"image_url":null,"decayed_at":null,"tle_current":{"epoch":"2026-09-20T04:00:03.000096Z","epoch_age_seconds":57835,"freshness":"FRESH","line1":"1 69597U 26140F   26263.16670139 -.00035349  00000+0 -31532-2 0  9992","line2":"2 69597  51.8960 304.9666 0005639 280.6215 262.2801 14.95466585  4343","mean_motion":14.95466585,"eccentricity":0.0005639,"inclination_deg":51.896,"raan_deg":304.9666,"arg_perigee_deg":280.6215,"mean_anomaly_deg":262.2801,"bstar":-0.0031532,"rev_number":434,"period_min":96.291018097205,"perigee_km":577.00067653646,"apogee_km":584.84910653774,"semimajor_km":6959.0618915371,"source":"CELESTRAK","updated_at":"2026-09-20T09:00:25.000045Z"}}}